Regional Weather Roundup
Issued by NWS

Home | Current Version | Previous Version | Graphics & Text | Print | Product List | Glossary On
Versions: 1 2 3 4 5 6 7 8 9 10 11 12 13 14 15 16 17 18 19 20 21 22 23 24 25 26 27 28 29 30 31 32 33 34 35 36 37 38 39 40 41 42 43 44 45 46 47 48 49 50
000
ASUS45 KSLC 190010
RWRUT

UTAH REGIONAL WEATHER ROUNDUP
NATIONAL WEATHER SERVICE SALT LAKE CITY UT
600 PM MDT FRI AUG 18 2017

UTZ001>011-023>025-190100-

NORTHERN UTAH

CITY           SKY/WX    TMP DP  RH WIND       PRES   REMARKS
BRIGHAM CITY   SUNNY     89  22   8 S7        30.09S
HILL AFB       SUNNY     87  33  14 SW5       30.13F
LOGAN          SUNNY     89  35  14 SW10      30.09S
OGDEN          SUNNY     88  31  13 W8        30.10S
SALT LAKE CITY MOSUNNY   92  36  14 NW10      30.07F
TOOELE VALLEY  SUNNY     88  43  20 N12       30.09S
WENDOVER       SUNNY     91  34  13 SE8       30.06F
HEBER CITY     MOSUNNY   88  32  13 W9        30.15S
WEST JORDAN    SUNNY     88  53  30 N10       30.11F

$$

UTZ011>015-024>027-190100-

CENTRAL/NORTHEAST UTAH

CITY           SKY/WX    TMP DP  RH WIND       PRES   REMARKS
PROVO AIRPORT  MOSUNNY   90  45  21 NW10      30.09S
MOAB/CANYONLAN SUNNY     94  25   8 W8        30.05F
DELTA          SUNNY     91  30  11 N3        30.09F
PRICE          MOSUNNY   85  32  15 VRB3      30.17F
ROOSEVELT      SUNNY     90  34  13 S7        30.12F
VERNAL         SUNNY     89  36  15 E6        30.11F

$$

UTZ013>016-019>022-027-190100-

SOUTHERN UTAH

CITY           SKY/WX    TMP DP  RH WIND       PRES   REMARKS
BRYCE CANYON   PTSUNNY   77  35  21 S7        30.34F
CEDAR CITY     MOSUNNY   90  35  14 VRB3      30.16F
MILFORD        MOSUNNY   91  29  11 VRB6      30.10S
ST GEORGE      PTCLDY   100  38  11 SW8       29.93F HX  95
HANKSVILLE     SUNNY     95  32  11 S3        30.07S HX  90
BLANDING       SUNNY     87  29  12 CALM      30.25F

$$

REGIONAL REPORTS     COLORADO/ARIZONA

CITY           SKY/WX    TMP DP  RH WIND       PRES   REMARKS
CRAIG, CO      SUNNY     86  23  10 W9G17     30.19F
GRAND JUNCTION SUNNY     93  26   9 NW15      30.08F
RIFLE, CO      SUNNY     90  19   7 W14       30.13S
MONTROSE, CO   SUNNY     87  34  15 N8        30.17S
CORTEZ, CO     SUNNY     88  25  10 NW6       30.18F
COLORADO CITY    N/A     95  37  13 SW6       30.13F HX  90
PAGE, AZ       SUNNY     97  32  10 CALM      30.04F HX  91
GRAND CANYON   MOSUNNY   82  34  17 NE6       30.27F
KINGMAN, AZ    NOT AVBL
FLAGSTAFF, AZ  SUNNY     78  31  17 SW12      30.31F

$$

REGIONAL REPORTS    NEVADA/IDAHO/WYOMING

CITY           SKY/WX    TMP DP  RH WIND       PRES   REMARKS
LAS VEGAS, NV  MOSUNNY  104  37  10 NW6       29.89F HX  98
ELY, NY        PTSUNNY   87  28  12 W12       30.20F
ELKO, NV       MOSUNNY   91  20   7 W12       30.12F
POCATELLO, ID  SUNNY     87  24  10 W15       30.10F
BURLEY, ID     SUNNY     83  36  18 W12       30.07F
FORT BRIDGER,    N/A     82  27  13 W18G29    30.30R
EVANSTON, WY   SUNNY     79  31  17 W20G31    30.29S
ROCK SPRINGS,  SUNNY     83  23  11 W17G28    30.21F
KEMMERER, WY     N/A    N/A N/A N/A W22G32    30.29R

$$



USA.gov is the U.S. government's official web portal to all federal, state and local government web resources and services.